{"data":{"norad_id":61751,"epoch":"2026-05-25T04:01:20.311680Z","epoch_age_seconds":60810,"freshness":"FRESH","line1":"1 61751U 24199S   26145.16759620  .00008847  00000+0  25128-3 0  9996","line2":"2 61751  97.3033  14.7933 0010735  39.2774 320.9247 15.36364171133609","mean_motion":15.36364171,"eccentricity":0.0010735,"inclination_deg":97.3033,"raan_deg":14.7933,"arg_perigee_deg":39.2774,"mean_anomaly_deg":320.9247,"bstar":0.00025128,"rev_number":13360,"period_min":93.72777803473,"perigee_km":449.5341488957,"apogee_km":464.2089122108,"semimajor_km":6835.0085305532,"source":"CELESTRAK","updated_at":"2026-05-25T13:38:02.552490Z"}}